[[{"header":{"parameterUnit":"m.s-1","parameterCategory":1,"la1":30.2991,"la2":30.254,"lo1":-89.0895,"lo2":-89.0444,"dy":0.0017,"dx":0.0017,"nx":28,"ny":28,"refTime":"2025-03-23T03:00:00:Z","depth":0,"parameterNumber":2,"parameterNumberName":"U-component_of_WINDS"},"data":[0,0,0,0,0,0,0,0,0,0,0,0,0,0,0,0,0,0,0,0,0,0,0,0,0,0,0,0,0,0,0,0,0,0,0,0,0,0,0,0,0,0,0,0,0,0,0,0,0,0,0,0,0,0,0,0,0,0,-0.3451,-0.3449,0,-0.3262,-0.3259,-0.3257,-0.3172,-0.3172,-0.3172,-0.3173,-0.2972,-0.2966,-0.2961,0,0,0,0,0,0,0,0,0,0,0,0,0,-0.3729,-0.3725,-0.3451,-0.3448,-0.3446,-0.3262,-0.3259,-0.3257,-0.3172,-0.3172,-0.3173,-0.3173,-0.2974,-0.2967,-0.296,0,0,0,0,0,0,0,0,0,0,0,0,0,-0.3581,-0.3723,-0.3451,-0.3382,-0.3374,-0.3262,-0.3259,-0.3256,-0.3172,-0.3172,-0.3173,-0.3173,-0.2976,-0.2968,-0.2959,-0.2901,0,0,-0.2934,-0.293,0,0,0,0,0,0,0,0,-0.359,-0.3571,-0.3394,-0.3386,-0.3377,-0.3241,-0.3284,-0.3137,-0.3172,-0.3248,-0.3173,-0.3173,-0.306,-0.3045,-0.3009,-0.2891,-0.2883,-0.2933,-0.2928,-0.2924,-0.2922,0,0,0,0,0,0,0,-0.36,-0.3578,-0.3376,-0.3392,-0.3381,-0.3357,-0.3336,-0.3255,-0.3154,-0.3242,-0.3235,-0.3214,-0.3056,-0.3017,-0.3003,-0.288,-0.2933,-0.2926,-0.2921,-0.2918,-0.2701,-0.27,0,0,0,0,0,0,-0.3623,-0.3588,-0.3382,-0.337,-0.3487,-0.3352,-0.3329,-0.3284,-0.3155,-0.3136,-0.3214,-0.3211,-0.3031,-0.3013,-0.2996,-0.2917,-0.2925,-0.2917,-0.2912,-0.2702,-0.2701,-0.27,0,0,0,0,0,0,-0.3629,-0.3605,-0.3389,-0.3477,-0.3448,-0.3347,-0.3297,-0.328,-0.3241,-0.3135,-0.3115,-0.3194,-0.3031,-0.3008,-0.2925,-0.2908,-0.2913,-0.2905,-0.2702,-0.2701,-0.27,-0.2759,0,0,0,0,0,0,-0.3637,-0.3608,-0.3587,-0.3477,-0.3443,-0.3324,-0.3296,-0.3276,-0.3228,-0.3222,-0.311,-0.3092,-0.3029,-0.2938,-0.2917,-0.2897,-0.2899,-0.2703,-0.2702,-0.2701,-0.2758,-0.276,-0.2762,0,0,0,0,0,-0.3648,-0.361,-0.3587,-0.3562,-0.3416,-0.3324,-0.3304,-0.3235,-0.3227,-0.3204,-0.3134,-0.3095,-0.2914,-0.293,-0.2905,-0.2883,-0.2704,-0.2702,-0.2701,-0.2757,-0.276,-0.2762,0,0,0,0,0,0,-0.3719,-0.3595,-0.3567,-0.3494,-0.342,-0.331,-0.3278,-0.324,-0.3165,-0.3163,-0.3077,-0.3053,-0.2976,-0.2921,-0.2941,-0.2818,-0.2805,-0.2799,-0.2857,-0.2858,-0.286,-0.2874,-0.2892,0,0,0,0,0,-0.3727,-0.3666,-0.3559,-0.3504,-0.3469,-0.338,-0.3337,-0.329,-0.321,-0.3177,-0.3102,-0.3023,-0.2948,-0.29,-0.2825,-0.275,-0.2722,-0.2722,-0.2724,-0.2726,-0.2721,-0.2674,-0.2671,-0.2694,-0.2694,-0.2694,0,0,-0.3741,-0.3666,-0.3632,-0.3517,-0.3454,-0.3389,-0.3354,-0.3288,-0.3238,-0.3166,-0.3084,-0.3026,-0.2931,-0.2852,-0.2812,-0.2803,-0.2708,-0.2724,-0.2727,-0.272,-0.2672,-0.267,-0.2668,-0.2693,-0.2693,-0.2694,0,0,-0.3734,-0.3672,-0.3619,-0.3557,-0.3463,-0.3404,-0.3391,-0.3285,-0.3244,-0.316,-0.3105,-0.3042,-0.2916,-0.285,-0.28,-0.2765,-0.2725,-0.2743,-0.2752,-0.2707,-0.2705,-0.2703,-0.2688,-0.2684,-0.2738,-0.2738,-0.2739,0,-0.3764,-0.3666,-0.3595,-0.3531,-0.3481,-0.3415,-0.3358,-0.33,-0.3186,-0.3151,-0.3143,-0.2981,-0.2913,-0.2815,-0.2807,-0.2769,-0.2749,-0.2755,-0.2712,-0.2709,-0.2706,-0.2691,-0.2686,-0.2741,-0.2741,-0.2741,-0.274,0,-0.3705,-0.3638,-0.3606,-0.3499,-0.3444,-0.3384,-0.3301,-0.3254,-0.3211,-0.3152,-0.3065,-0.2981,-0.2886,-0.286,-0.2817,-0.2755,-0.2752,-0.2729,-0.2714,-0.2708,-0.2692,-0.2686,-0.2745,-0.2744,-0.2743,-0.2742,0,0,-0.3739,-0.3593,-0.3582,-0.3531,-0.3421,-0.3366,-0.3301,-0.3211,-0.3171,-0.3094,-0.3035,-0.2928,-0.2906,-0.2849,-0.2797,-0.2758,-0.2733,-0.2739,-0.2736,-0.2739,-0.2656,-0.2673,-0.2667,-0.2706,-0.2705,-0.2703,-0.2663,0,-0.3716,-0.3599,-0.3532,-0.3442,-0.3377,-0.3312,-0.3255,-0.318,-0.3122,-0.3056,-0.2991,-0.2916,-0.2893,-0.2858,-0.2816,-0.2745,-0.2714,-0.2747,-0.2647,-0.2645,-0.2672,-0.2659,-0.2677,-0.2643,-0.2656,-0.2655,-0.2654,0,-0.3673,-0.3598,-0.3502,-0.3398,-0.3368,-0.3318,-0.3228,-0.3167,-0.3079,-0.3039,-0.2975,-0.2923,-0.2848,-0.2841,-0.2735,-0.2758,-0.2713,-0.2671,-0.2668,-0.2655,-0.2649,-0.2644,-0.2631,-0.2625,-0.2644,-0.2645,-0.2646,0,-0.3705,-0.358,-0.3505,-0.3464,-0.3341,-0.3307,-0.3253,-0.3166,-0.3114,-0.3035,-0.3,-0.2912,-0.2864,-0.2795,-0.272,-0.2722,-0.262,-0.2607,-0.2582,-0.2584,-0.2563,-0.2565,-0.2541,-0.2537,-0.2537,-0.2537,-0.2538,0,-0.3685,-0.3628,-0.3518,-0.3472,-0.3405,-0.3327,-0.3262,-0.3202,-0.3125,-0.3063,-0.3001,-0.2945,-0.285,-0.278,-0.272,-0.264,-0.2619,-0.2582,-0.2567,-0.2587,-0.2591,-0.2555,-0.2555,-0.2536,-0.2536,-0.2537,-0.2537,0,-0.3709,-0.3633,-0.3547,-0.3437,-0.3408,-0.3363,-0.3267,-0.3218,-0.3157,-0.308,-0.3057,-0.296,-0.2874,-0.2793,-0.2679,-0.2638,-0.2557,-0.2537,-0.2587,-0.2579,-0.2558,-0.256,-0.2508,-0.2496,-0.2503,-0.2503,-0.2503,0,-0.3701,-0.3656,-0.3541,-0.3496,-0.3444,-0.3374,-0.3321,-0.3241,-0.3188,-0.3083,-0.3046,-0.2957,-0.2881,-0.2747,-0.2664,-0.2575,-0.2552,-0.254,-0.2538,-0.2559,-0.2549,-0.2552,-0.2546,-0.2541,-0.2542,-0.2542,-0.2542,0,-0.3694,-0.3658,-0.3586,-0.35,-0.3439,-0.3367,-0.3293,-0.3259,-0.3164,-0.3108,-0.3021,-0.2962,-0.2845,-0.2756,-0.2657,-0.2598,-0.2553,-0.2544,-0.2533,-0.2552,-0.2582,-0.2563,-0.259,-0.2545,-0.2545,-0.2544,-0.2544,-0.2544,-0.3699,-0.3655,-0.3567,-0.3488,-0.3423,-0.3355,-0.3303,-0.3235,-0.3161,-0.3061,-0.3018,-0.2929,-0.2838,-0.2701,-0.2643,-0.257,-0.2559,-0.2544,-0.254,-0.2537,-0.254,-0.2595,-0.2552,-0.2552,-0.2551,-0.2551,-0.2551,0,-0.3687,-0.3627,-0.3555,-0.3453,-0.339,-0.3355,-0.327,-0.3218,-0.3142,-0.3062,-0.2989,-0.2887,-0.2799,-0.2709,-0.2616,-0.2574,-0.2551,-0.2552,-0.2554,-0.254,-0.2556,-0.2574,-0.2573,-0.2573,-0.2573,-0.2573,-0.2573,-0.2573,-0.3673,-0.3596,-0.3549,-0.3437,-0.3376,-0.329,-0.3244,-0.3179,-0.3115,-0.3005,-0.2932,-0.2875,-0.2789,-0.2688,-0.2605,-0.2581,-0.2548,-0.2555,-0.2524,-0.2541,-0.254,-0.2538,-0.2555,-0.2549,-0.2549,-0.2513,-0.2513,-0.2513]},{"header":{"parameterUnit":"m.s-1","parameterCategory":1,"la1":30.2991,"la2":30.254,"lo1":-89.0895,"lo2":-89.0444,"dy":0.0017,"dx":0.0017,"nx":28,"ny":28,"refTime":"2025-03-23T03:00:00:Z","depth":0,"parameterNumber":3,"parameterNumberName":"V-component_of_WINDS"},"data":[0,0,0,0,0,0,0,0,0,0,0,0,0,0,0,0,0,0,0,0,0,0,0,0,0,0,0,0,0,0,0,0,0,0,0,0,0,0,0,0,0,0,0,0,0,0,0,0,0,0,0,0,0,0,0,0,0,0,2.0196,2.0196,0,2.0213,2.0213,2.0214,2.0221,2.0221,2.0221,2.0221,2.0236,2.0237,2.0237,0,0,0,0,0,0,0,0,0,0,0,0,0,2.0168,2.0169,2.0196,2.0196,2.0197,2.0213,2.0213,2.0214,2.0221,2.0221,2.0221,2.0221,2.0236,2.0237,2.0237,0,0,0,0,0,0,0,0,0,0,0,0,0,2.0182,2.0169,2.0196,2.0202,2.0203,2.0213,2.0213,2.0214,2.0221,2.0221,2.0221,2.0221,2.0236,2.0237,2.0237,2.0242,0,0,2.0239,2.024,0,0,0,0,0,0,0,0,2.0181,2.0183,2.0201,2.0202,2.0203,2.0215,2.0209,2.0223,2.0221,2.0214,2.0221,2.0221,2.0229,2.023,2.0234,2.0243,2.0243,2.0239,2.024,2.024,2.024,0,0,0,0,0,0,0,2.018,2.0183,2.0203,2.0202,2.0202,2.0204,2.0206,2.0212,2.0222,2.0215,2.0215,2.0217,2.023,2.0233,2.0234,2.0244,2.0239,2.024,2.024,2.0241,2.0257,2.0257,0,0,0,0,0,0,2.0179,2.0182,2.0202,2.0203,2.0192,2.0204,2.0206,2.0211,2.0222,2.0223,2.0217,2.0218,2.0232,2.0233,2.0235,2.0241,2.024,2.0241,2.0241,2.0257,2.0257,2.0257,0,0,0,0,0,0,2.0178,2.0181,2.0202,2.0193,2.0196,2.0205,2.021,2.0211,2.0215,2.0224,2.0225,2.0219,2.0232,2.0234,2.024,2.0241,2.0241,2.0242,2.0257,2.0257,2.0257,2.0253,0,0,0,0,0,0,2.0177,2.018,2.0183,2.0193,2.0196,2.0208,2.021,2.0212,2.0216,2.0217,2.0226,2.0227,2.0232,2.0239,2.0241,2.0242,2.0242,2.0257,2.0257,2.0257,2.0253,2.0252,2.0252,0,0,0,0,0,2.0176,2.018,2.0183,2.0185,2.0199,2.0208,2.0209,2.0216,2.0216,2.0218,2.0224,2.0227,2.0241,2.024,2.0242,2.0243,2.0257,2.0257,2.0257,2.0253,2.0253,2.0252,0,0,0,0,0,0,2.0169,2.0182,2.0185,2.0192,2.0199,2.0209,2.0212,2.0215,2.0221,2.0221,2.0228,2.023,2.0236,2.024,2.0239,2.0248,2.0249,2.0249,2.0245,2.0245,2.0245,2.0244,2.0243,0,0,0,0,0,2.0169,2.0175,2.0185,2.0191,2.0194,2.0202,2.0206,2.0211,2.0218,2.022,2.0226,2.0232,2.0238,2.0242,2.0248,2.0253,2.0255,2.0255,2.0255,2.0255,2.0255,2.0258,2.0258,2.0257,2.0257,2.0257,0,0,2.0167,2.0175,2.0179,2.019,2.0196,2.0202,2.0205,2.0211,2.0215,2.0221,2.0228,2.0232,2.0239,2.0245,2.0248,2.0249,2.0256,2.0255,2.0255,2.0255,2.0258,2.0259,2.0259,2.0257,2.0257,2.0257,0,0,2.0168,2.0175,2.018,2.0186,2.0195,2.02,2.0201,2.0211,2.0214,2.0221,2.0226,2.0231,2.024,2.0245,2.0249,2.0252,2.0255,2.0253,2.0252,2.0255,2.0256,2.0256,2.0257,2.0257,2.0254,2.0254,2.0254,0,2.0165,2.0175,2.0182,2.0188,2.0193,2.0199,2.0204,2.0209,2.0219,2.0222,2.0223,2.0235,2.0241,2.0248,2.0249,2.0251,2.0253,2.0252,2.0255,2.0255,2.0255,2.0256,2.0257,2.0253,2.0253,2.0253,2.0253,0,2.0171,2.0178,2.0181,2.0191,2.0196,2.0202,2.0209,2.0213,2.0217,2.0222,2.0229,2.0235,2.0242,2.0244,2.0248,2.0252,2.0252,2.0254,2.0255,2.0255,2.0256,2.0257,2.0253,2.0253,2.0253,2.0253,0,0,2.0168,2.0183,2.0184,2.0188,2.0198,2.0203,2.0209,2.0217,2.022,2.0226,2.0231,2.0239,2.0241,2.0245,2.0249,2.0252,2.0253,2.0253,2.0253,2.0253,2.0258,2.0257,2.0257,2.0255,2.0255,2.0255,2.0257,0,2.017,2.0182,2.0188,2.0196,2.0202,2.0208,2.0213,2.0219,2.0224,2.0229,2.0234,2.024,2.0242,2.0244,2.0247,2.0252,2.0254,2.0252,2.0259,2.0259,2.0257,2.0258,2.0256,2.0258,2.0258,2.0258,2.0258,0,2.0175,2.0182,2.0191,2.02,2.0203,2.0207,2.0215,2.022,2.0227,2.023,2.0235,2.0239,2.0245,2.0245,2.0253,2.0251,2.0254,2.0257,2.0257,2.0258,2.0259,2.0259,2.0259,2.0259,2.0259,2.0259,2.0258,0,2.0172,2.0183,2.019,2.0194,2.0205,2.0208,2.0213,2.022,2.0224,2.023,2.0233,2.024,2.0243,2.0248,2.0253,2.0253,2.026,2.0261,2.0262,2.0262,2.0264,2.0264,2.0265,2.0265,2.0265,2.0265,2.0265,0,2.0174,2.0179,2.0189,2.0194,2.0199,2.0206,2.0212,2.0217,2.0223,2.0228,2.0233,2.0237,2.0244,2.0249,2.0253,2.0258,2.026,2.0262,2.0263,2.0262,2.0262,2.0264,2.0264,2.0266,2.0266,2.0266,2.0265,0,2.0171,2.0179,2.0187,2.0197,2.0199,2.0203,2.0211,2.0215,2.022,2.0226,2.0228,2.0236,2.0242,2.0248,2.0256,2.0258,2.0264,2.0265,2.0262,2.0262,2.0263,2.0263,2.0266,2.0267,2.0267,2.0267,2.0267,0,2.0172,2.0177,2.0187,2.0191,2.0196,2.0202,2.0207,2.0213,2.0218,2.0226,2.0229,2.0235,2.0241,2.025,2.0256,2.0262,2.0264,2.0264,2.0265,2.0263,2.0264,2.0264,2.0264,2.0264,2.0264,2.0264,2.0264,0,2.0173,2.0176,2.0183,2.0191,2.0196,2.0203,2.0209,2.0212,2.0219,2.0224,2.0231,2.0235,2.0243,2.025,2.0256,2.026,2.0263,2.0264,2.0265,2.0263,2.0261,2.0263,2.0261,2.0264,2.0264,2.0264,2.0264,2.0264,2.0173,2.0177,2.0185,2.0192,2.0198,2.0203,2.0208,2.0213,2.0219,2.0227,2.0231,2.0237,2.0244,2.0253,2.0257,2.0262,2.0263,2.0264,2.0264,2.0264,2.0264,2.026,2.0263,2.0263,2.0263,2.0263,2.0263,0,2.0174,2.0179,2.0186,2.0195,2.02,2.0203,2.021,2.0215,2.0221,2.0227,2.0232,2.024,2.0246,2.0252,2.0259,2.0261,2.0263,2.0263,2.0263,2.0263,2.0263,2.0262,2.0261,2.0261,2.0261,2.0261,2.0261,2.0261,2.0175,2.0182,2.0186,2.0196,2.0201,2.0209,2.0212,2.0217,2.0222,2.0231,2.0236,2.024,2.0247,2.0253,2.0259,2.0261,2.0263,2.0262,2.0264,2.0263,2.0263,2.0264,2.0263,2.0262,2.0262,2.0264,2.0264,2.0264]}]]